GFSFLT1_850_dewp_069.txt.gz
Dewpoint
4 5 7 7 7 8 6 4 8 10 11 10 10 10 9 9 10 10 10 10 9 9 8 1 -4 -7 -6 -4 2 6 7 7
5 6 7 8 8 8 6 3 8 10 10 10 10 10 10 9 10 10 10 9 8 8 8 4 -2 -7 -9 -9 2 6 6 7
5 6 7 8 8 8 7 4 6 10 9 9 9 10 10 10 10 10 10 10 8 7 9 7 -0 -6 -9 -9 4 6 6 7
5 6 6 8 8 7 7 4 5 9 9 9 9 9 9 10 10 10 10 10 8 9 9 8 1 -4 -3 -6 4 5 3 6
5 5 6 7 7 8 8 5 4 8 9 10 9 9 10 10 10 10 10 10 8 9 9 9 5 -2 2 4 4 5 4 6
5 5 6 7 7 7 8 6 4 6 9 10 9 9 9 9 9 9 9 10 9 8 8 8 8 4 3 7 7 6 6 5
4 7 7 7 8 8 8 6 5 7 8 9 10 9 9 9 8 8 9 9 9 9 8 8 8 7 5 5 6 7 6 5
6 7 7 7 7 8 8 7 5 5 8 8 8 8 8 9 8 8 9 9 9 9 8 8 9 9 7 7 7 7 7 5
3 4 6 6 7 7 8 7 6 5 7 7 8 8 7 8 9 8 9 9 9 9 8 8 9 9 8 6 8 8 8 6
5 6 6 6 6 7 7 7 7 5 5 6 8 8 8 7 8 9 9 9 9 9 8 8 9 9 8 7 7 7 7 5
7 6 6 7 7 7 8 8 8 7 6 6 7 8 8 8 8 8 8 9 9 8 8 7 7 7 8 8 6 6 6 6
8 8 8 8 8 8 9 9 9 9 8 8 7 7 8 8 8 7 8 8 8 9 8 7 7 7 6 6 5 4 4 4
9 9 9 9 9 9 9 9 9 9 9 8 7 7 8 8 8 8 7 7 7 7 7 7 7 7 6 5 4 3 3 2
7 9 10 10 10 10 10 10 10 10 10 9 9 8 7 7 8 8 8 8 8 8 8 8 6 5 5 4 4 3 2 2
4 4 5 8 9 9 9 10 9 9 10 10 10 10 9 8 8 8 7 7 8 8 8 8 7 7 5 5 4 3 3 3
0 -0 1 2 3 4 4 5 8 9 9 9 9 9 10 10 9 9 8 8 8 8 8 8 8 8 7 7 6 4 4 3
-0 -2 -2 -2 -2 -0 1 2 4 6 8 9 9 9 9 9 9 9 9 9 9 9 9 8 8 8 8 8 8 8 7 7
-0 -1 -1 -1 -1 -2 -3 -3 -1 0 2 3 5 7 8 9 9 9 9 9 9 9 9 9 9 9 8 8 8 8 8 8
0 0 -1 -1 -1 -2 -2 -3 -4 -4 -4 -3 -1 0 2 4 7 8 8 8 8 8 8 9 9 9 10 10 9 9 8 9

GFSFLT1_850_dewp_072.txt.gz
Dewpoint
3 5 5 7 7 7 8 7 7 9 9 9 9 10 10 10 10 9 10 10 10 10 10 8 8 4 9 8 7 6 6 6
2 5 7 7 8 8 8 7 6 10 9 9 9 10 11 10 10 10 10 10 10 10 9 9 5 1 3 5 6 6 6 7
1 5 7 7 8 8 8 7 5 10 10 10 9 9 11 10 11 10 10 10 10 10 9 9 3 -0 2 3 4 5 6 7
0 2 5 6 8 8 8 7 5 9 11 10 9 9 10 10 10 10 10 9 8 8 9 9 3 -3 -3 1 4 4 6 7
-0 3 4 6 7 8 8 7 6 6 11 9 9 9 10 10 10 10 10 10 10 9 8 8 7 -1 -4 -5 1 1 6 6
-1 -1 1 5 6 7 8 8 7 4 11 9 9 9 9 10 9 9 10 10 10 10 9 7 9 7 -1 -8 -8 -1 6 6
2 5 6 6 6 8 8 8 7 3 8 10 9 9 9 9 9 9 9 10 10 10 9 9 8 8 3 -5 -5 -2 6 5
-3 5 6 6 6 7 8 7 7 2 5 9 10 9 9 9 9 9 9 9 9 9 10 9 8 9 6 -1 4 2 2 5
-3 -0 4 5 7 7 7 7 7 4 3 8 9 9 9 8 7 8 8 8 8 9 9 9 8 8 8 6 1 5 5 5
-2 3 5 6 7 7 7 8 8 5 3 5 8 8 9 8 8 8 8 8 8 8 9 9 9 8 9 8 7 5 6 6
5 8 9 9 9 9 8 8 8 6 5 4 5 7 8 8 8 8 8 8 8 9 9 9 9 8 8 8 8 7 7 7
8 10 10 10 10 10 9 8 8 8 7 6 6 6 7 8 8 8 8 9 9 9 9 9 9 8 8 9 9 8 7 6
9 10 10 10 10 10 10 9 8 8 8 8 8 7 6 6 7 8 8 8 8 8 9 9 8 8 7 7 7 8 8 8
7 8 8 9 9 9 10 10 10 10 10 9 9 9 8 7 6 6 7 7 7 8 8 8 9 8 8 7 7 7 7 7
5 6 6 8 9 9 9 9 9 9 9 10 9 10 10 9 8 8 7 6 7 7 7 7 7 7 8 8 7 7 7 7
1 3 4 5 7 7 8 8 9 9 9 8 9 9 9 9 9 9 9 8 8 7 7 7 7 8 8 8 8 8 6 6
-1 -1 -1 1 2 3 4 6 7 8 8 8 8 8 8 8 8 8 8 9 9 9 9 9 9 9 8 8 8 8 8 8
-1 -1 -1 -1 -2 -2 -2 -1 0 2 4 6 7 7 8 8 8 8 8 8 8 8 8 8 8 8 8 9 9 9 8 8
1 -0 -1 -1 -1 -2 -2 -2 -3 -3 -3 -3 -2 -1 1 3 6 7 7 7 8 8 8 8 8 8 8 8 8 8 8 8

GFSFLT1_850_dewp_075.txt.gz
Dewpoint
-7 -7 4 8 8 7 7 7 7 8 9 10 9 10 10 10 10 10 11 11 10 10 10 9 9 9 10 9 8 7 7 7
-6 -5 2 7 7 7 7 8 8 9 10 10 9 10 10 10 9 10 10 10 10 10 10 10 9 9 8 9 8 7 7 7
-5 -5 -0 6 6 7 7 7 8 9 7 10 11 10 9 9 10 10 9 10 10 10 10 10 9 9 8 9 8 7 7 7
-6 -6 -3 6 6 6 7 7 8 8 9 10 10 11 10 10 10 10 9 10 10 10 10 9 8 9 6 8 8 7 7 7
-6 -6 -2 2 6 7 8 7 8 8 9 10 9 10 9 9 10 10 10 10 10 10 10 10 9 9 4 4 7 7 6 6
-6 -6 -0 4 7 7 8 7 8 8 9 9 10 10 9 10 10 10 10 10 9 9 8 7 9 7 2 -1 1 5 6 6
-4 -3 -0 4 7 8 8 8 8 8 8 9 9 8 9 9 10 10 10 10 10 10 9 8 7 8 2 -1 -0 3 5 5
-2 1 2 5 5 6 8 8 8 8 8 9 9 9 9 9 8 9 10 9 9 10 10 9 8 9 7 1 0 -2 1 3
-3 2 4 5 7 7 9 8 8 8 6 8 9 8 9 9 8 8 8 8 9 9 10 9 9 8 8 8 2 -3 -5 -4
-3 4 7 7 9 10 9 9 8 8 5 6 8 8 8 8 8 8 8 8 8 7 9 9 10 9 9 9 5 -0 -1 -0
2 7 8 9 9 11 10 9 8 7 5 5 7 7 8 8 8 7 8 8 8 8 8 8 9 9 9 9 8 4 1 4
9 9 9 9 9 9 10 10 8 7 6 5 5 6 7 8 8 8 8 8 8 8 8 8 9 9 9 9 8 9 6 3
9 9 9 9 9 9 10 9 9 8 8 7 6 6 7 7 8 8 8 8 8 8 8 8 8 9 9 9 8 8 8 8
6 8 8 8 8 9 9 9 9 9 9 9 9 8 8 7 7 7 8 8 8 8 8 8 8 9 8 8 8 8 7 8
3 5 6 7 7 8 8 9 9 9 9 9 9 9 9 9 9 8 8 8 8 8 8 8 8 8 8 7 7 7 7 7
1 2 3 5 6 7 8 8 9 10 9 9 9 9 9 9 9 9 9 9 8 8 8 8 7 7 7 7 7 7 7 7
-1 -1 -0 1 3 4 6 8 8 8 8 8 8 8 8 9 9 9 9 9 9 8 8 8 9 8 8 8 8 8 8 8
-2 -1 -2 -2 -2 -1 1 2 4 6 5 7 7 7 7 8 8 8 8 8 8 8 8 8 8 8 8 8 8 8 8 8
-1 -2 -2 -2 -2 -2 -2 -3 -3 -2 -0 0 2 3 5 6 6 7 7 7 7 7 7 7 7 7 8 8 8 8 8 8

GFSFLT1_850_dewp_078.txt.gz
Dewpoint
-5 0 6 9 11 12 8 6 7 7 6 7 9 9 9 10 10 10 10 10 10 11 10 10 9 10 7 9 10 9 9 8
-6 -1 7 9 11 12 8 6 8 7 7 9 10 11 10 10 10 10 10 11 11 10 10 11 10 10 8 9 10 9 9 9
-6 -1 7 9 11 12 8 7 8 7 7 9 10 9 10 10 9 9 9 10 10 11 10 10 10 10 8 9 9 9 8 9
-7 -0 7 9 10 11 9 8 9 8 9 9 9 8 10 10 10 10 10 10 9 10 10 10 10 10 9 9 9 9 8 9
-5 -3 5 8 10 12 11 12 10 10 10 8 7 9 10 10 10 9 9 9 9 10 10 10 10 10 10 8 9 9 8 9
-4 -2 2 7 9 11 12 12 10 11 10 9 9 9 10 9 10 10 10 9 9 10 10 10 10 9 9 8 9 9 9 8
-2 -1 4 7 10 12 12 11 10 10 10 8 9 9 9 10 10 10 10 10 9 10 10 10 8 8 8 9 7 8 8 8
0 3 6 8 10 11 10 11 10 9 10 9 9 10 8 9 9 10 10 10 10 9 9 9 9 9 9 9 5 5 7 8
1 5 7 8 10 11 11 10 10 9 9 10 9 8 8 9 9 9 9 10 10 9 9 10 8 7 8 7 4 2 1 4
3 5 8 9 10 11 11 10 10 8 8 9 9 9 9 9 8 8 8 8 8 8 9 9 10 9 8 8 4 1 1 2
6 8 9 9 10 11 10 10 10 9 7 6 10 9 8 8 8 8 8 7 8 8 8 9 9 10 9 9 8 7 6 3
9 9 9 10 9 9 9 10 9 9 6 9 10 9 8 8 8 8 8 7 8 8 8 8 9 9 9 8 7 8 8 6
9 9 9 9 9 9 9 10 10 9 8 9 8 8 8 8 8 8 8 8 8 8 8 8 8 9 9 9 9 9 9 8
5 8 7 8 9 9 9 9 9 9 10 9 8 9 7 7 8 8 8 8 8 8 8 8 8 8 9 9 9 9 9 8
2 4 4 6 7 8 8 8 9 9 8 9 9 9 9 8 9 8 8 8 8 8 8 8 8 8 8 9 9 9 8 8
-0 1 2 3 5 7 8 8 8 8 9 9 9 9 9 9 9 8 8 8 8 8 8 8 8 8 8 8 8 8 8 7
-2 -1 0 1 1 3 5 6 7 7 8 8 8 9 9 9 9 9 9 9 8 8 8 8 8 8 8 8 7 8 8 8
-2 -2 -2 -2 -1 0 2 4 5 5 7 7 6 7 8 8 8 8 8 8 8 8 8 8 8 8 8 8 8 8 8 8
-2 -3 -3 -3 -2 -3 -3 -1 -0 1 2 3 2 4 6 6 6 6 7 7 7 7 7 7 7 7 7 7 7 7 7 7

GFSFLT1_850_dewp_084.txt.gz
Dewpoint
-6 -6 -9 -9 -5 2 10 12 13 12 13 10 4 1 4 6 9 10 11 12 11 10 11 11 10 8 9 9 10 10 10 10
-6 -8 -11 -8 -4 7 11 12 12 12 13 8 4 2 4 5 11 11 11 11 10 11 11 11 10 9 9 9 10 10 9 9
-5 -8 -9 -5 2 7 11 12 13 13 12 7 6 6 6 6 6 10 9 10 10 11 11 11 10 10 9 9 9 10 10 8
-4 -5 -7 -1 4 9 11 13 13 13 12 10 9 10 10 11 11 10 9 9 10 10 10 10 11 10 10 9 10 9 8 9
-5 -5 -7 1 3 10 12 13 13 13 12 11 9 7 7 8 9 10 10 10 10 10 10 10 10 8 10 10 10 8 8 9
-6 -4 -6 3 4 9 11 13 13 12 12 11 10 8 8 8 9 10 10 10 10 10 11 10 9 9 10 10 10 9 8 8
-6 -4 -5 2 6 9 11 13 13 12 12 11 10 10 10 9 10 10 11 10 9 10 9 9 10 10 9 10 10 8 7 9
8 6 -4 -4 6 9 11 12 12 12 12 12 11 10 10 10 10 11 11 9 9 9 8 8 9 10 9 9 9 8 8 8
7 8 4 -0 8 10 12 12 12 12 12 11 11 10 9 10 10 10 9 9 9 9 8 9 10 10 10 10 10 8 8 8
7 8 7 1 7 10 11 12 12 12 12 11 11 10 9 10 10 10 9 9 9 9 9 9 9 10 9 10 9 8 8 6
5 8 11 9 9 11 12 11 11 11 11 11 10 10 10 9 9 10 10 10 9 9 9 9 9 9 9 10 9 8 8 8
5 7 9 11 11 11 11 11 11 10 11 11 10 10 9 9 9 10 9 9 9 9 9 9 9 9 9 9 9 9 8 8
4 5 7 10 10 11 11 11 11 11 11 10 10 10 9 9 9 8 8 9 8 8 9 8 9 9 9 9 9 9 9 9
3 4 5 7 8 10 10 10 10 10 10 9 9 9 9 8 8 8 8 8 7 8 8 9 8 8 9 9 9 9 9 8
2 2 2 3 5 8 9 10 10 10 10 9 9 8 9 9 8 8 8 7 7 8 8 9 9 9 9 9 9 9 9 9
-0 0 0 1 3 4 7 8 9 9 9 9 9 9 9 9 9 9 8 8 8 8 8 8 8 9 8 8 9 8 9 9
-1 -1 -0 -0 -0 1 2 4 7 8 9 9 8 8 7 8 8 8 9 8 8 9 8 8 8 8 8 8 8 9 9 9
-2 -2 -2 -2 -2 -1 -0 1 3 5 6 7 7 7 8 8 8 8 8 7 8 8 8 8 8 8 8 8 8 8 8 8
-3 -3 -1 -2 -2 -2 -1 -0 1 2 2 3 3 5 5 5 6 7 6 7 7 7 7 7 7 7 8 8 8 8 7 7